Weather in Novopetropavlovskoye

Russia / Kurgan Oblast     55°52′45″N   62°59′15″E
temp.,
°C
wind,
m/s
gust,
m/s
humid.,
%
clouds,
%
prec.,
mm/h
press.,
hPa
HPBL,
m
18 may, wed
wed1823:00+10sw33775 0.1 100330
02:00+8s22795 0.0 100420
05:00+7sw3485100 0.0 100462
08:00+12w457226 0.0 1004426
11:00+15sw565594 0.0 10041281
14:00+17sw5639100 0.0 10042045
17:00+18s57379 0.0 10022214
20:00+13sw6116689 0.1 1001509
19 may, thu
thu1923:00+9sw3691100 0.7 1001340
02:00+9sw3690100 1.1 1000269
05:00+7wsw5109157 1.2 1000314
08:00+10wsw787842 0.0 1001685
11:00+10wsw7973100 0.0 10021023
14:00+11w7107360 0.1 10041140
17:00+11w9116965 0.1 10051129
20:00+9w511695 0.0 1007740
20 may, fri
fri2023:00+6sw488263 0.0 1007143
02:00+7wsw5117787 0.0 1006507
05:00+5wsw410935 0.0 1007334
08:00+8w79716 0.0 1008842
11:00+11w795781 0.0 10091480
14:00+12wsw6851100 0.0 10081486
17:00+13wsw5747100 0.0 10071539
20:00+11nw2261100 0.0 100521
21 may, sat
sat2123:00+9ne2361100 0.0 100467
02:00+7nne4772100 0.2 1002312
05:00+6nne61188100 1.8 998510
08:00+6n6892100 2.9 997859
11:00+5n6894100 6.6 997745
14:00+5nw5693100 2.1 997838
17:00+6nw3590100 3.1 998705
20:00+6w2490100 0.6 999310
22 may, sun
sun2223:00+5wsw6994100 0.8 1000663
02:00+5w6118546 0.3 1000638
05:00+2wsw613915 0.3 1002517
08:00+5wsw7107968 0.0 1003877
11:00+8wsw7106499 0.0 10041511
14:00+11wsw5858100 0.0 10031518
17:00+10ssw587397 0.1 1004878
20:00+9e3587100 0.5 1004157